[Date Prev][Date Next][Thread Prev][Thread Next] - [Date Index][Thread Index][Author Index]

MIR & ISS Keps 2-5



The MIR Keps will update by 34 sec's

MIR
1 16609U 86017A   99036.48563945  .00014776  00000-0  12169-3 0  1893
2 16609  51.6630 298.4892 0014866  97.5765 262.6836 15.70518097740682


ISS
1 25544U 98067A   99036.70298920  .00014758  00000-0  20497-3 0  2818
2 25544  51.5928 139.2201 0004641  87.6559 272.4970 15.57245500 12081

----
Via the sarex mailing list at AMSAT.ORG courtesy of AMSAT-NA.
To unsubscribe, send "unsubscribe sarex" to Majordomo@amsat.org



AMSAT Top AMSAT Home